[[{"header":{"parameterUnit":"m.s-1","parameterCategory":1,"la1":30.2991,"la2":30.254,"lo1":-89.0895,"lo2":-89.0444,"dy":0.0017,"dx":0.0017,"nx":28,"ny":28,"refTime":"2024-08-27T03:00:00:Z","depth":0,"parameterNumber":2,"parameterNumberName":"U-component_of_WINDS"},"data":[0,0,0,0,0,0,0,0,0,0,0,0,0,0,0,0,0,0,0,0,0,0,0,0,0,0,0,0,0,0,0,0,0,0,0,0,0,0,0,0,0,0,0,0,0,0,0,0,0,0,0,0,0,0,0,0,0,0,0.9681,0.9681,0,0.9732,0.9732,0.9733,0.9762,0.9762,0.9762,0.9762,0.9812,0.9813,0.9814,0,0,0,0,0,0,0,0,0,0,0,0,0,0.9606,0.9607,0.9681,0.9681,0.9682,0.9732,0.9732,0.9733,0.9762,0.9762,0.9762,0.9762,0.9811,0.9813,0.9814,0,0,0,0,0,0,0,0,0,0,0,0,0,0.9646,0.9608,0.968,0.9702,0.9705,0.9731,0.9732,0.9733,0.9762,0.9762,0.9762,0.9762,0.9811,0.9813,0.9814,0.9822,0,0,0.982,0.9821,0,0,0,0,0,0,0,0,0.9643,0.9648,0.9698,0.9701,0.9704,0.9741,0.9724,0.9763,0.9762,0.974,0.9762,0.9762,0.9788,0.9791,0.9801,0.9825,0.9827,0.982,0.9821,0.9822,0.9823,0,0,0,0,0,0,0,0.9641,0.9646,0.9701,0.9699,0.9702,0.9709,0.9715,0.9732,0.9762,0.9742,0.9744,0.975,0.9789,0.9799,0.9802,0.9828,0.982,0.9822,0.9823,0.9824,0.9861,0.9861,0,0,0,0,0,0,0.9635,0.9644,0.9699,0.9702,0.9673,0.971,0.9717,0.9729,0.9762,0.9768,0.975,0.9751,0.9796,0.98,0.9804,0.9816,0.9822,0.9824,0.9825,0.9862,0.9861,0.9861,0,0,0,0,0,0,0.9633,0.9639,0.9697,0.9674,0.9682,0.9711,0.9724,0.9729,0.9739,0.9768,0.9774,0.9754,0.9796,0.9801,0.9818,0.9818,0.9825,0.9826,0.9862,0.9861,0.9861,0.9839,0,0,0,0,0,0,0.9631,0.9639,0.9642,0.9674,0.9683,0.9711,0.9724,0.973,0.9743,0.9745,0.9774,0.9779,0.9796,0.9815,0.982,0.9821,0.9828,0.9862,0.9862,0.9861,0.984,0.9838,0.9837,0,0,0,0,0,0.9628,0.9633,0.9642,0.9649,0.9688,0.9711,0.9716,0.9737,0.9742,0.9746,0.9765,0.9778,0.9817,0.9817,0.9822,0.9823,0.9862,0.9862,0.9861,0.9841,0.9839,0.9837,0,0,0,0,0,0,0.96,0.9638,0.9648,0.9664,0.9684,0.9716,0.9721,0.9734,0.9752,0.9753,0.9778,0.9785,0.9799,0.9813,0.9811,0.9833,0.9841,0.9842,0.9823,0.9822,0.982,0.9816,0.9829,0,0,0,0,0,0.9596,0.9612,0.9644,0.9654,0.9664,0.9691,0.9701,0.9716,0.9738,0.9746,0.9766,0.9785,0.9802,0.9813,0.983,0.9843,0.9849,0.9846,0.9845,0.9843,0.9843,0.9852,0.9851,0.9861,0.9861,0.9861,0,0,0.9587,0.961,0.9618,0.9649,0.9667,0.9682,0.9698,0.9713,0.9724,0.9748,0.9765,0.9781,0.9804,0.9819,0.9826,0.9831,0.9842,0.9843,0.9842,0.9843,0.9851,0.985,0.9849,0.9861,0.9861,0.9861,0,0,0.9579,0.9597,0.9609,0.9626,0.9653,0.9671,0.9673,0.9703,0.9715,0.9733,0.9751,0.9765,0.9793,0.9809,0.9821,0.9821,0.9833,0.9825,0.9817,0.9824,0.9824,0.9823,0.9823,0.9822,0.9826,0.9826,0.9826,0,0.9564,0.9589,0.9613,0.9628,0.9641,0.9664,0.9676,0.9691,0.9721,0.973,0.9735,0.9772,0.9789,0.9808,0.9808,0.9817,0.9821,0.9822,0.9822,0.9822,0.9821,0.9821,0.9821,0.9825,0.9825,0.9825,0.9825,0,0.9569,0.9586,0.9592,0.9622,0.9636,0.9649,0.9674,0.9686,0.97,0.9717,0.9735,0.9757,0.9779,0.9785,0.9798,0.9806,0.9808,0.9817,0.9826,0.9819,0.9819,0.982,0.9823,0.9823,0.9824,0.9824,0,0,0.9543,0.9588,0.9589,0.9604,0.9635,0.9648,0.9662,0.9685,0.9695,0.9715,0.9727,0.9751,0.976,0.9774,0.9789,0.9796,0.9794,0.9804,0.9805,0.9802,0.9805,0.9797,0.9797,0.9803,0.9803,0.9803,0.9803,0,0.9539,0.9567,0.9589,0.9608,0.9624,0.9647,0.9659,0.968,0.9696,0.9712,0.973,0.9747,0.9757,0.9766,0.9774,0.9793,0.9795,0.9793,0.9814,0.9814,0.9807,0.9797,0.9789,0.9788,0.9803,0.9803,0.9803,0,0.9538,0.9559,0.9579,0.961,0.9618,0.9628,0.9652,0.9666,0.969,0.9702,0.9718,0.9734,0.975,0.9757,0.9779,0.9777,0.9787,0.9798,0.9798,0.9801,0.9808,0.9799,0.9788,0.9787,0.9804,0.9803,0.9803,0,0.9517,0.955,0.9567,0.9578,0.9615,0.9622,0.9637,0.9661,0.9674,0.9694,0.9702,0.9724,0.9735,0.9751,0.9773,0.9776,0.9793,0.9801,0.9802,0.9802,0.9804,0.9803,0.9794,0.9811,0.9811,0.9811,0.9811,0,0.951,0.9521,0.9558,0.9568,0.9582,0.9608,0.9621,0.9638,0.9659,0.9673,0.9694,0.9706,0.9734,0.975,0.9767,0.9783,0.9788,0.9797,0.9801,0.9795,0.9794,0.9801,0.9802,0.9811,0.9811,0.9811,0.9811,0,0.9488,0.9513,0.9533,0.9566,0.9575,0.9584,0.9612,0.9623,0.9641,0.9658,0.9664,0.9693,0.9712,0.9736,0.9762,0.9774,0.9788,0.9795,0.978,0.9783,0.9782,0.9782,0.9777,0.9777,0.9794,0.9794,0.9794,0,0.9481,0.9491,0.9526,0.9537,0.9552,0.957,0.9583,0.961,0.9623,0.9651,0.9658,0.968,0.9698,0.9729,0.9751,0.9772,0.9779,0.9776,0.9782,0.9776,0.9779,0.9778,0.9779,0.9774,0.9774,0.9774,0.9774,0,0.9466,0.9479,0.9498,0.9522,0.9538,0.9557,0.9578,0.9586,0.9616,0.963,0.9651,0.9665,0.9694,0.9715,0.9739,0.9754,0.9769,0.9772,0.9773,0.9766,0.9757,0.9762,0.9775,0.9771,0.9772,0.9772,0.9772,0.9772,0.9452,0.9462,0.9488,0.9509,0.9528,0.9547,0.9559,0.958,0.9598,0.9624,0.9638,0.9659,0.9683,0.9717,0.9732,0.9748,0.9753,0.9755,0.9756,0.9756,0.9754,0.9755,0.9753,0.9753,0.9753,0.9753,0.9753,0,0.9438,0.9457,0.9476,0.9505,0.9521,0.9535,0.9559,0.9572,0.959,0.9612,0.963,0.9655,0.9676,0.9701,0.9723,0.9732,0.9739,0.9736,0.9736,0.9739,0.9748,0.9744,0.973,0.973,0.973,0.973,0.973,0.973,0.9433,0.9451,0.9466,0.9494,0.9512,0.9534,0.9546,0.9564,0.9582,0.9608,0.9626,0.9643,0.9666,0.9691,0.9711,0.9718,0.9725,0.972,0.9729,0.9736,0.9738,0.974,0.9737,0.9722,0.9722,0.9719,0.9719,0.9719]},{"header":{"parameterUnit":"m.s-1","parameterCategory":1,"la1":30.2991,"la2":30.254,"lo1":-89.0895,"lo2":-89.0444,"dy":0.0017,"dx":0.0017,"nx":28,"ny":28,"refTime":"2024-08-27T03:00:00:Z","depth":0,"parameterNumber":3,"parameterNumberName":"V-component_of_WINDS"},"data":[0,0,0,0,0,0,0,0,0,0,0,0,0,0,0,0,0,0,0,0,0,0,0,0,0,0,0,0,0,0,0,0,0,0,0,0,0,0,0,0,0,0,0,0,0,0,0,0,0,0,0,0,0,0,0,0,0,0,-2.5219,-2.522,0,-2.53,-2.5301,-2.5302,-2.53,-2.5299,-2.5298,-2.5297,-2.5378,-2.5381,-2.5384,0,0,0,0,0,0,0,0,0,0,0,0,0,-2.5062,-2.5065,-2.5219,-2.522,-2.5221,-2.53,-2.5301,-2.5302,-2.53,-2.5299,-2.5298,-2.5297,-2.5377,-2.538,-2.5384,0,0,0,0,0,0,0,0,0,0,0,0,0,-2.5135,-2.5066,-2.5219,-2.523,-2.5232,-2.5299,-2.5301,-2.5302,-2.5301,-2.5299,-2.5297,-2.5296,-2.5375,-2.538,-2.5385,-2.5446,0,0,-2.5399,-2.5401,0,0,0,0,0,0,0,0,-2.5131,-2.5141,-2.5227,-2.5229,-2.5231,-2.5288,-2.5275,-2.535,-2.5301,-2.5274,-2.5297,-2.5295,-2.5349,-2.5356,-2.5375,-2.545,-2.5453,-2.54,-2.5402,-2.5405,-2.5406,0,0,0,0,0,0,0,-2.5126,-2.5137,-2.5251,-2.5228,-2.5231,-2.523,-2.5239,-2.5289,-2.532,-2.5277,-2.5277,-2.5286,-2.535,-2.537,-2.5376,-2.5455,-2.5399,-2.5404,-2.5407,-2.5408,-2.5584,-2.5586,0,0,0,0,0,0,-2.5119,-2.5133,-2.5248,-2.5253,-2.5176,-2.5234,-2.5244,-2.5272,-2.5319,-2.5325,-2.5288,-2.5286,-2.5363,-2.5371,-2.5379,-2.5454,-2.5404,-2.5409,-2.5412,-2.5582,-2.5585,-2.5587,0,0,0,0,0,0,-2.5115,-2.5129,-2.5245,-2.5193,-2.5208,-2.5239,-2.527,-2.5274,-2.5294,-2.5328,-2.5333,-2.5303,-2.5362,-2.5373,-2.543,-2.5457,-2.5411,-2.5415,-2.558,-2.5583,-2.5586,-2.5604,0,0,0,0,0,0,-2.5111,-2.5128,-2.5152,-2.5194,-2.5211,-2.5295,-2.5272,-2.5277,-2.5303,-2.5301,-2.5343,-2.5348,-2.5361,-2.5423,-2.5434,-2.5462,-2.5419,-2.5578,-2.5582,-2.5585,-2.5601,-2.5607,-2.5612,0,0,0,0,0,-2.5105,-2.5153,-2.5153,-2.5167,-2.5242,-2.5296,-2.5306,-2.532,-2.5305,-2.5329,-2.535,-2.5347,-2.5452,-2.5428,-2.5442,-2.5472,-2.5576,-2.5581,-2.5585,-2.5599,-2.5606,-2.5612,0,0,0,0,0,0,-2.5113,-2.5159,-2.5159,-2.5223,-2.5256,-2.5296,-2.5327,-2.5327,-2.5365,-2.5362,-2.5378,-2.5387,-2.5444,-2.5464,-2.5436,-2.5534,-2.5512,-2.5519,-2.5518,-2.5526,-2.5531,-2.5525,-2.5423,0,0,0,0,0,-2.5122,-2.5163,-2.5201,-2.5253,-2.527,-2.5296,-2.532,-2.5328,-2.5363,-2.5376,-2.5402,-2.5435,-2.5476,-2.5502,-2.5541,-2.5604,-2.5613,-2.5631,-2.5637,-2.5641,-2.5647,-2.5681,-2.569,-2.56,-2.56,-2.56,0,0,-2.5141,-2.5171,-2.5196,-2.5256,-2.5282,-2.5324,-2.5307,-2.5352,-2.5383,-2.5383,-2.5438,-2.5459,-2.5497,-2.5557,-2.5585,-2.5575,-2.5674,-2.5647,-2.565,-2.5653,-2.5687,-2.5695,-2.5702,-2.5603,-2.5603,-2.5602,0,0,-2.5197,-2.5224,-2.5271,-2.5298,-2.5339,-2.5356,-2.5367,-2.5407,-2.5421,-2.5477,-2.5478,-2.5515,-2.5584,-2.5611,-2.5634,-2.5701,-2.5699,-2.5713,-2.5741,-2.5775,-2.5782,-2.5788,-2.5812,-2.582,-2.5719,-2.5719,-2.5719,0,-2.5215,-2.5278,-2.5294,-2.5339,-2.5365,-2.5368,-2.5415,-2.544,-2.5492,-2.5509,-2.5498,-2.5585,-2.5611,-2.5677,-2.5694,-2.5712,-2.5725,-2.5708,-2.578,-2.5786,-2.5793,-2.5815,-2.5824,-2.572,-2.572,-2.572,-2.572,0,-2.5299,-2.5343,-2.5375,-2.5425,-2.5455,-2.55,-2.5522,-2.555,-2.5556,-2.5574,-2.5631,-2.5663,-2.5708,-2.5725,-2.5731,-2.5792,-2.5785,-2.5777,-2.5755,-2.5802,-2.5823,-2.5832,-2.5722,-2.5722,-2.5721,-2.5721,0,0,-2.536,-2.5419,-2.5431,-2.5453,-2.5499,-2.5533,-2.5579,-2.5624,-2.5647,-2.5683,-2.5721,-2.578,-2.5773,-2.5799,-2.5808,-2.5838,-2.5888,-2.5826,-2.5827,-2.5835,-2.5957,-2.5962,-2.5972,-2.5887,-2.5889,-2.5891,-2.5953,0,-2.542,-2.5502,-2.5518,-2.5589,-2.5629,-2.5633,-2.5673,-2.5705,-2.5723,-2.5759,-2.5779,-2.5821,-2.5809,-2.5824,-2.5854,-2.5875,-2.5912,-2.5871,-2.5922,-2.5924,-2.5912,-2.5983,-2.5988,-2.6046,-2.5962,-2.5963,-2.5964,0,-2.5501,-2.5539,-2.5614,-2.5654,-2.5672,-2.5707,-2.575,-2.5785,-2.5821,-2.5832,-2.5862,-2.5868,-2.5915,-2.5893,-2.5957,-2.5929,-2.5951,-2.5965,-2.5968,-2.5972,-2.5946,-2.5988,-2.6065,-2.6073,-2.5977,-2.5976,-2.5975,0,-2.5537,-2.5607,-2.5661,-2.5681,-2.5729,-2.5754,-2.5775,-2.581,-2.5836,-2.5874,-2.5891,-2.5933,-2.5955,-2.5988,-2.6005,-2.5987,-2.6068,-2.6047,-2.6078,-2.6078,-2.6094,-2.6092,-2.6174,-2.611,-2.611,-2.611,-2.6109,0,-2.5602,-2.5647,-2.5678,-2.5711,-2.5762,-2.578,-2.583,-2.5851,-2.5882,-2.5919,-2.5925,-2.5959,-2.598,-2.6017,-2.6031,-2.6082,-2.6093,-2.6103,-2.6105,-2.6102,-2.61,-2.6115,-2.6111,-2.6112,-2.6111,-2.6111,-2.6111,0,-2.5651,-2.5674,-2.5732,-2.5774,-2.5785,-2.5821,-2.5856,-2.5888,-2.5907,-2.5953,-2.5965,-2.5994,-2.6038,-2.6059,-2.6113,-2.6123,-2.618,-2.6181,-2.6168,-2.6169,-2.6198,-2.6195,-2.6292,-2.6305,-2.6233,-2.6234,-2.6234,0,-2.569,-2.5725,-2.5771,-2.5796,-2.5818,-2.5859,-2.5886,-2.5905,-2.5933,-2.5977,-2.6004,-2.6048,-2.6085,-2.6155,-2.618,-2.6222,-2.6223,-2.6254,-2.6229,-2.6224,-2.6223,-2.622,-2.6223,-2.6258,-2.6259,-2.626,-2.626,0,-2.5757,-2.5767,-2.5806,-2.5849,-2.5881,-2.5916,-2.595,-2.597,-2.5994,-2.6025,-2.6071,-2.6099,-2.6155,-2.6199,-2.6243,-2.6264,-2.6266,-2.6268,-2.6277,-2.6273,-2.6264,-2.6268,-2.6179,-2.6265,-2.6265,-2.6264,-2.6264,-2.6264,-2.5802,-2.5833,-2.587,-2.5913,-2.5941,-2.5973,-2.6005,-2.6028,-2.6066,-2.6114,-2.6123,-2.6171,-2.6207,-2.6265,-2.6288,-2.6326,-2.6319,-2.6332,-2.6335,-2.6338,-2.6339,-2.6259,-2.6334,-2.6334,-2.6334,-2.6334,-2.6334,0,-2.5868,-2.5893,-2.5932,-2.598,-2.6014,-2.6014,-2.6052,-2.608,-2.6122,-2.6156,-2.6192,-2.6244,-2.6287,-2.6316,-2.636,-2.6384,-2.6386,-2.6395,-2.6392,-2.6397,-2.6344,-2.6331,-2.6392,-2.6392,-2.6392,-2.6392,-2.6392,-2.6392,-2.5907,-2.596,-2.5974,-2.6041,-2.6065,-2.6112,-2.6134,-2.6163,-2.619,-2.6248,-2.6284,-2.6303,-2.6335,-2.638,-2.642,-2.6427,-2.6442,-2.6451,-2.6458,-2.6407,-2.6401,-2.6395,-2.6383,-2.6454,-2.6454,-2.6508,-2.6509,-2.6509]}]]